| time (UTC) | temp C | wind direction | speed KPH | gust KPH | rain 1hr cm | rain 24hr cm | rain mn cm | humidity % | barometer mb |
| 20260510190048 | 17 | 250 | 0.0 | 1.6 | 0.03 | 0.36 | 0.03 | 51 | 1012.4 |
| 20260510184621 | 17 | 250 | 0.0 | 1.6 | 0.03 | 0.43 | 0.03 | 62 | 1012.5 |
| 20260510183041 | 17 | 248 | 0.0 | 4.8 | 0.00 | 0.41 | 0.00 | 66 | 1012.3 |
| 20260510181501 | 17 | 284 | 0.0 | 6.4 | 0.00 | 0.41 | 0.00 | 67 | 1012.3 |
| 20260510180055 | 18 | 295 | 0.0 | 9.7 | 0.00 | 0.41 | 0.00 | 63 | 1012.4 |
| 20260510174501 | 20 | 252 | 1.6 | 8.0 | 0.00 | 0.43 | 0.00 | 54 | 1012.0 |
| 20260510173059 | 21 | 273 | 1.6 | 8.0 | 0.00 | 0.43 | 0.00 | 54 | 1012.1 |
| 20260510171524 | 20 | 262 | 1.6 | 14.5 | 0.00 | 0.43 | 0.00 | 57 | 1012.2 |
| 20260510170058 | 21 | 225 | 3.2 | 17.7 | 0.00 | 0.43 | 0.00 | 55 | 1012.1 |
| 20260510164515 | 21 | 167 | 0.0 | 6.4 | 0.00 | 0.46 | 0.00 | 57 | 1012.2 |
| 20260510163116 | 19 | 247 | 0.0 | 8.0 | 0.00 | 0.46 | 0.00 | 59 | 1012.5 |
| 20260510161537 | 18 | 229 | 1.6 | 12.9 | 0.00 | 0.46 | 0.00 | 60 | 1012.6 |
| 20260510160134 | 19 | 134 | 1.6 | 8.0 | 0.00 | 0.46 | 0.00 | 60 | 1012.7 |
| 20260510154553 | 18 | 181 | 1.6 | 12.9 | 0.00 | 0.48 | 0.00 | 65 | 1012.7 |
| 20260510153017 | 18 | 240 | 0.0 | 17.7 | 0.00 | 0.48 | 0.00 | 65 | 1012.9 |
| 20260510151605 | 18 | 247 | 1.6 | 8.0 | 0.00 | 0.48 | 0.00 | 63 | 1012.9 |
| 20260510150022 | 18 | 194 | 0.0 | 11.3 | 0.00 | 0.48 | 0.00 | 67 | 1012.9 |
| 20260510144615 | 17 | 174 | 0.0 | 4.8 | 0.00 | 0.51 | 0.00 | 68 | 1012.8 |
| 20260510143040 | 16 | 261 | 3.2 | 8.0 | 0.00 | 0.51 | 0.00 | 68 | 1012.9 |
| 20260510141632 | 16 | 142 | 1.6 | 9.7 | 0.00 | 0.51 | 0.00 | 64 | 1013.0 |
| 20260510140053 | 15 | 221 | 0.0 | 8.0 | 0.00 | 0.51 | 0.00 | 44 | 1013.0 |
| 20260510134511 | 13 | 246 | 0.0 | 1.6 | 0.00 | 0.53 | 0.00 | 15 | 1013.2 |
| 20260510133109 | 12 | 254 | 0.0 | 3.2 | 0.00 | 0.53 | 0.00 | 1 | 1013.2 |
| 20260510131522 | 11 | 263 | 3.2 | 9.7 | 0.00 | 0.53 | 0.00 | 1 | 1013.3 |
| 20260510130110 | 11 | 202 | 0.0 | 4.8 | 0.00 | 0.53 | 0.00 | 1 | 1013.2 |
| 20260510124523 | 10 | 202 | 0.0 | 3.2 | 0.00 | 0.61 | 0.00 | 1 | 1013.1 |
| 20260510123122 | 10 | 202 | 0.0 | 1.6 | 0.00 | 0.61 | 0.00 | 1 | 1013.1 |
| 20260510121539 | 10 | 202 | 0.0 | 1.6 | 0.00 | 0.61 | 0.00 | 1 | 1012.9 |
| 20260510120005 | 10 | 202 | 0.0 | 1.6 | 0.00 | 0.61 | 0.00 | 1 | 1013.1 |
| 20260510114546 | 9 | 202 | 0.0 | 1.6 | 0.00 | 0.61 | 0.00 | 1 | 1013.1 |
| 20260510113003 | 9 | 202 | 0.0 | 1.6 | 0.00 | 0.61 | 0.00 | 1 | 1013.0 |
| 20260510111555 | 9 | 203 | 0.0 | 4.8 | 0.00 | 0.61 | 0.00 | 1 | 1013.0 |
| 20260510110036 | 9 | 202 | 0.0 | 3.2 | 0.00 | 0.61 | 0.00 | 1 | 1012.7 |
| 20260510104605 | 9 | 202 | 0.0 | 1.6 | 0.00 | 0.71 | 0.00 | 1 | 1012.7 |
| 20260510101621 | 8 | 198 | 1.6 | 6.4 | 0.00 | 0.71 | 0.00 | 1 | 1012.3 |
| 20260510100047 | 8 | 244 | 0.0 | 1.6 | 0.00 | 0.71 | 0.00 | 1 | 1012.2 |
| 20260510094630 | 8 | 244 | 0.0 | 4.8 | 0.00 | 0.91 | 0.00 | 1 | 1012.0 |
| 20260510093045 | 8 | 243 | 0.0 | 3.2 | 0.00 | 0.91 | 0.00 | 1 | 1011.2 |
| 20260510091506 | 8 | 244 | 0.0 | 3.2 | 0.00 | 0.91 | 0.00 | 1 | 1011.3 |
| 20260510090057 | 8 | 247 | 0.0 | 3.2 | 0.00 | 0.91 | 0.00 | 1 | 1011.5 |
| 20260510084511 | 8 | 265 | 0.0 | 3.2 | 0.00 | 1.04 | 0.00 | 1 | 1011.7 |
| 20260510083106 | 8 | 267 | 0.0 | 8.0 | 0.00 | 1.04 | 0.00 | 1 | 1012.2 |
| 20260510081534 | 8 | 234 | 3.2 | 6.4 | 0.00 | 1.04 | 0.00 | 1 | 1012.3 |
| 20260510080110 | 8 | 249 | 1.6 | 4.8 | 0.00 | 1.04 | 0.00 | 1 | 1012.1 |
| 20260510074529 | 8 | 250 | 0.0 | 3.2 | 0.00 | 1.04 | 0.00 | 1 | 1012.3 |
| 20260510073120 | 8 | 250 | 0.0 | 6.4 | 0.00 | 1.04 | 0.00 | 1 | 1012.2 |
| 20260510071539 | 8 | 190 | 0.0 | 1.6 | 0.00 | 1.04 | 0.00 | 1 | 1012.0 |
| 20260510070131 | 8 | 208 | 0.0 | 4.8 | 0.00 | 1.04 | 0.00 | 1 | 1011.9 |
| 20260510064555 | 8 | 208 | 0.0 | 3.2 | 0.00 | 1.04 | 0.00 | 1 | 1012.1 |
| 20260510063135 | 8 | 252 | 0.0 | 1.6 | 0.00 | 1.04 | 0.00 | 1 | 1011.9 |
| 20260510061552 | 8 | 252 | 0.0 | 0.0 | 0.00 | 1.04 | 0.00 | 1 | 1012.0 |
| 20260510060024 | 8 | 252 | 0.0 | 1.6 | 0.00 | 1.04 | 0.00 | 1 | 1012.0 |
| 20260510054607 | 8 | 243 | 0.0 | 3.2 | 0.00 | 1.04 | 0.00 | 1 | 1011.9 |
| 20260510053020 | 8 | 244 | 0.0 | 3.2 | 0.00 | 1.04 | 0.00 | 1 | 1011.7 |
| 20260510051619 | 8 | 244 | 0.0 | 3.2 | 0.00 | 1.04 | 0.00 | 1 | 1012.2 |
| 20260510050027 | 8 | 244 | 1.6 | 4.8 | 0.00 | 1.04 | 0.00 | 1 | 1012.3 |
| 20260510044616 | 8 | 165 | 0.0 | 1.6 | 0.00 | 1.04 | 0.00 | 1 | 1012.0 |
| 20260510043030 | 8 | 165 | 0.0 | 3.2 | 0.00 | 1.04 | 0.00 | 1 | 1011.9 |
| 20260510041626 | 8 | 167 | 1.6 | 4.8 | 0.00 | 1.04 | 0.00 | 1 | 1012.0 |
| 20260510040057 | 9 | 167 | 0.0 | 4.8 | 0.00 | 1.04 | 0.00 | 1 | 1012.1 |
| 20260510034540 | 9 | 167 | 0.0 | 4.8 | 0.00 | 1.04 | 1.04 | 1 | 1012.0 |
| 20260510033129 | 9 | 165 | 0.0 | 4.8 | 0.00 | 1.04 | 1.04 | 1 | 1012.0 |
| 20260510031546 | 9 | 166 | 0.0 | 4.8 | 0.00 | 1.04 | 1.04 | 1 | 1012.2 |
| 20260510030135 | 9 | 165 | 0.0 | 1.6 | 0.00 | 1.04 | 1.04 | 1 | 1012.2 |
| 20260510024552 | 9 | 165 | 0.0 | 1.6 | 0.00 | 1.04 | 1.04 | 1 | 1012.2 |
| 20260510023010 | 9 | 166 | 0.0 | 3.2 | 0.00 | 1.04 | 1.04 | 1 | 1012.3 |
| 20260510021651 | 9 | 165 | 0.0 | 4.8 | 0.00 | 1.04 | 1.04 | 1 | 1012.1 |
| 20260510020014 | 9 | 166 | 0.0 | 4.8 | 0.00 | 1.04 | 1.04 | 1 | 1012.0 |
| 20260510014614 | 9 | 194 | 0.0 | 3.2 | 0.00 | 1.04 | 1.04 | 1 | 1012.4 |
| 20260510013031 | 9 | 196 | 0.0 | 3.2 | 0.00 | 1.04 | 1.04 | 1 | 1012.5 |
| 20260510011621 | 9 | 198 | 0.0 | 3.2 | 0.00 | 1.04 | 1.04 | 1 | 1012.6 |
| 20260510010043 | 9 | 198 | 0.0 | 3.2 | 0.00 | 1.04 | 1.04 | 1 | 1012.1 |
| 20260510004625 | 9 | 201 | 0.0 | 4.8 | 0.00 | 1.04 | 1.04 | 1 | 1011.9 |
| 20260510003046 | 9 | 201 | 0.0 | 3.2 | 0.00 | 1.04 | 1.04 | 1 | 1011.7 |
| 20260510001506 | 9 | 224 | 1.6 | 4.8 | 0.03 | 1.04 | 1.04 | 1 | 1011.6 |
| 20260510000058 | 9 | 223 | 0.0 | 3.2 | 0.03 | 1.04 | 1.04 | 1 | 1011.5 |
| 20260509234656 | 9 | 222 | 0.0 | 4.8 | 0.03 | 1.04 | 1.04 | 1 | 1011.4 |
| 20260509233109 | 9 | 227 | 1.6 | 6.4 | 0.03 | 1.04 | 1.04 | 1 | 1011.4 |
| 20260509231530 | 9 | 178 | 0.0 | 8.0 | 0.00 | 1.02 | 1.02 | 1 | 1011.3 |
| 20260509230118 | 9 | 184 | 0.0 | 4.8 | 0.00 | 1.02 | 1.02 | 1 | 1011.4 |
| 20260509224530 | 9 | 190 | 0.0 | 6.4 | 0.03 | 1.02 | 1.02 | 1 | 1011.4 |
| 20260509223117 | 9 | 194 | 0.0 | 6.4 | 0.03 | 1.02 | 1.02 | 1 | 1011.2 |
| 20260509221542 | 9 | 238 | 0.0 | 3.2 | 0.03 | 1.02 | 1.02 | 1 | 1011.2 |
| 20260509220002 | 9 | 265 | 0.0 | 3.2 | 0.05 | 1.02 | 1.02 | 1 | 1011.5 |
| 20260509214559 | 9 | 360 | 0.0 | 4.8 | 0.05 | 0.99 | 0.99 | 1 | 1011.5 |
| 20260509213019 | 9 | 265 | 0.0 | 3.2 | 0.08 | 0.99 | 0.99 | 1 | 1011.5 |
| 20260509211609 | 9 | 255 | 0.0 | 4.8 | 0.13 | 0.99 | 0.99 | 1 | 1011.6 |
| 20260509210020 | 9 | 262 | 0.0 | 6.4 | 0.15 | 0.97 | 0.97 | 1 | 1011.9 |
| 20260509204615 | 10 | 220 | 0.0 | 4.8 | 0.15 | 0.94 | 0.94 | 1 | 1011.9 |
| 20260509201633 | 10 | 203 | 1.6 | 4.8 | 0.13 | 0.86 | 0.86 | 1 | 1012.4 |
| 20260509200051 | 10 | 242 | 0.0 | 4.8 | 0.10 | 0.81 | 0.81 | 1 | 1012.4 |
| 20260509194631 | 10 | 213 | 0.0 | 3.2 | 0.10 | 0.79 | 0.79 | 1 | 1012.5 |
| 20260509193055 | 10 | 157 | 0.0 | 6.4 | 0.13 | 0.76 | 0.76 | 1 | 1012.6 |
| 20260509191511 | 10 | 188 | 0.0 | 3.2 | 0.10 | 0.71 | 0.71 | 1 | 1012.6 |